Tracking 20232 objects as of 20-Jan-2020
HD Live streaming from Space Station
objects crossing your sky now

NOAA 16 DEB

Track NOAA 16 DEB now!
10-day predictions


NORAD ID: 42353
Int'l Code: 2000-055QV
Perigee: 764.8 km
Apogee: 842.8 km
Inclination: 98.8 °
Period: 100.8 minutes
Semi major axis: 7174 km
RCS: Unknown
Launch date: September 21, 2000
Source: United States (US)
Launch site: AIR FORCE WESTERN TEST RANGE (AFWTR)

Note: This is SATELLITE DEBRIS
aabbcc
Your satellite tracking list
Your tracking list is empty




NASA's NSSDC Master Catalog

Two Line Element Set (TLE):
1 42353U 00055QV  20019.06393179  .00000982  00000-0  40351-3 0  9992
2 42353  98.8001 120.4624 0054358  36.7546 323.7343 14.28523590206541
Source of the keplerian elements: AFSPC